Weather History for Dickinson, ND

Change the Weather History Date:

Wednesday, August 8, 2012

  Actual Average Record
Temperature  
Mean Temperature 71 °F 70 °F  
Max Temperature 86 °F 85 °F 101 °F (1992)
Min Temperature 56 °F 55 °F 39 °F (1939)
Degree Days  
Heating Degree Days 0 1  
Month to date heating degree days 14 8  
Since 1 June heating degree days 83 179  
Since 1 July heating degree days 15 42  
Cooling Degree Days 6 6  
Month to date cooling degree days 38 48  
Year to date cooling degree days 451 277  
Since 1 June cooling degree days 438 267  
Growing Degree Days 22 (Base 50)    
Moisture  
Dew Point 57 °F    
Average Humidity 64    
Maximum Humidity 100    
Minimum Humidity 27    
Precipitation  
Precipitation 0.04 in 0.05 in 0.74 in (1957)
Month to date precipitation 0.36 0.41  
Year to date precipitation 7.64 11.16  
Sea Level Pressure  
Sea Level Pressure 30.09 in    
Wind  
Wind Speed 7 mph (NNE)    
Max Wind Speed 15 mph    
Max Gust Speed 20 mph    
Visibility 9 miles    
Events Thunderstorm    
T = Trace of Precipitation, MM = Missing Value Source: NWS Daily Summary

Daily Weather History Graph

Daily Weather History Graph

Search for Another Location

Airport:

Trip Planner

Search our weather history database for the weather conditions in past years. The results will help you decide how hot, cold, wet, or windy it might be!

Date:

Astronomy

Aug. 08, 2012 Rise Set
Actual Time 5:40 AM MDT 8:12 PM MDT
Civil Twilight 5:06 AM MDT 8:46 PM MDT
Nautical Twilight 4:23 AM MDT 9:28 PM MDT
Astronomical Twilight 3:33 AM MDT 10:17 PM MDT
Moon 10:55 PM MDT (8/8) 12:59 PM MDT (8/8)
Length of Visible Light 15h 39m
Length of Day
14h 31m
Waning Gibbous, 60% of the Moon is Illuminated
Aug 8
Waning Gibbous
Aug 9
Last Quarter
Aug 17
New
Aug 24
First Quarter
Aug 31
Full

Hourly Weather History & Observations

Time (MDT) Temp. Heat Index Dew Point Humidity Pressure Visibility Wind Dir Wind Speed Gust Speed Precip Events Conditions
12:42 AM 66.2 °F - 57.2 °F 73% 30.03 in 10.0 mi NNE 12.7 mph - N/A Thunderstorm Thunderstorm
12:56 AM 66.0 °F - 59.0 °F 78% 29.97 in 10.0 mi NNE 10.4 mph - N/A Thunderstorm Partly Cloudy
1:30 AM 62.6 °F - 59.0 °F 88% 30.03 in 10.0 mi North 10.4 mph - 0.04 in   Mostly Cloudy
1:56 AM 61.0 °F - 59.0 °F 93% 29.98 in 10.0 mi NNE 9.2 mph - 0.04 in   Clear
2:56 AM 57.9 °F - 57.0 °F 97% 29.99 in 10.0 mi Calm Calm - N/A   Clear
3:56 AM 57.9 °F - 57.0 °F 97% 30.00 in 10.0 mi North 8.1 mph - N/A   Clear
4:47 AM 60.8 °F - 57.2 °F 88% 30.07 in 10.0 mi NNE 10.4 mph - N/A   Scattered Clouds
4:56 AM 60.1 °F - 59.0 °F 96% 30.03 in 10.0 mi NNE 11.5 mph - N/A   Mostly Cloudy
5:26 AM 60.8 °F - 59.0 °F 94% 30.09 in 6.0 mi North 11.5 mph 19.6 mph N/A   Overcast
5:45 AM 60.8 °F - 59.0 °F 94% 30.10 in 1.8 mi North 11.5 mph - N/A   Overcast
5:56 AM 60.1 °F - 59.0 °F 96% 30.06 in 1.8 mi North 9.2 mph - N/A   Overcast
6:56 AM 61.0 °F - 60.1 °F 97% 30.09 in 8.0 mi NNE 12.7 mph - N/A   Overcast
7:43 AM 62.6 °F - 60.8 °F 94% 30.15 in 10.0 mi NNE 11.5 mph - N/A   Overcast
7:56 AM 62.1 °F - 60.1 °F 93% 30.12 in 10.0 mi NE 11.5 mph - N/A   Overcast
8:56 AM 64.0 °F - 59.0 °F 84% 30.14 in 10.0 mi NE 8.1 mph - N/A   Mostly Cloudy
9:04 AM 64.4 °F - 60.8 °F 88% 30.17 in 10.0 mi NE 6.9 mph - N/A   Overcast
9:56 AM 68.0 °F - 60.1 °F 76% 30.14 in 10.0 mi NNE 4.6 mph - N/A   Mostly Cloudy
10:16 AM 69.8 °F - 59.0 °F 68% 30.19 in 10.0 mi Variable 3.5 mph - N/A   Scattered Clouds
10:23 AM 69.8 °F - 59.0 °F 68% 30.18 in 10.0 mi NNE 6.9 mph - N/A   Mostly Cloudy
10:39 AM 71.6 °F - 60.8 °F 69% 30.18 in 10.0 mi Variable 4.6 mph - N/A   Scattered Clouds
10:56 AM 72.0 °F - 59.0 °F 64% 30.15 in 10.0 mi ENE 8.1 mph - N/A   Clear
11:56 AM 75.0 °F - 57.9 °F 55% 30.13 in 10.0 mi Variable 4.6 mph - N/A   Clear
12:56 PM 80.1 °F 80.2 °F 55.9 °F 43% 30.11 in 10.0 mi North 6.9 mph - N/A   Clear
1:56 PM 82.0 °F - 52.0 °F 35% 30.11 in 10.0 mi NE 10.4 mph - N/A   Clear
2:56 PM 84.0 °F - 52.0 °F 33% 30.10 in 10.0 mi NNW 10.4 mph - N/A   Clear
3:56 PM 84.9 °F - 52.0 °F 32% 30.08 in 10.0 mi NE 9.2 mph - N/A   Clear
4:56 PM 86.0 °F - 48.9 °F 28% 30.07 in 10.0 mi ENE 8.1 mph - N/A   Clear
5:56 PM 84.0 °F - 50.0 °F 31% 30.07 in 10.0 mi Variable 4.6 mph - N/A   Clear
6:56 PM 84.0 °F - 46.9 °F 27% 30.06 in 10.0 mi North 5.8 mph - N/A   Clear
8:56 PM 68.0 °F - 51.1 °F 55% 30.10 in 10.0 mi East 5.8 mph - N/A   Clear
10:56 PM 62.1 °F - 52.0 °F 70% 30.11 in 10.0 mi SE 5.8 mph - N/A   Clear
11:56 PM 59.0 °F - 51.1 °F 75% 30.11 in 10.0 mi South 4.6 mph - N/A   Clear